Theta_e
331 332 332 331 331 331 330 328 329 330 330 327 325 325 326 327 327 328 329 329 329 330 330 330 330 330 330 330 330 331 330 330 329 329 328 328 327 328 328 329 329 328 326 326 325 326 327 326 324 324 326 326 327 327 327 327 326 325 324 322 321 319 317
331 332 331 330 330 329 328 327 327 328 329 328 327 326 327 327 327 327 327 327 328 329 330 330 330 330 330 330 330 330 331 330 330 329 329 328 327 328 328 329 328 326 325 325 324 324 324 325 325 322 322 324 325 325 327 325 323 321 319 317 315 314 312
330 330 330 329 329 328 327 326 326 326 327 327 327 327 327 327 326 326 326 326 327 328 329 329 329 330 330 330 329 330 330 330 330 329 329 328 328 328 329 328 327 325 324 323 322 324 322 322 324 321 320 321 321 321 324 324 322 319 314 311 310 309 308
327 328 329 329 328 327 326 326 326 326 326 326 326 326 326 326 326 326 325 325 326 326 327 328 329 329 329 329 329 329 330 330 330 329 328 328 328 328 329 328 327 326 325 323 322 323 321 320 322 320 317 319 319 318 321 322 320 315 309 307 305 305 305
326 328 329 328 327 327 326 325 325 326 326 326 326 326 326 325 325 325 325 325 326 326 327 326 327 328 329 329 329 329 330 329 329 329 328 328 328 329 329 328 327 326 326 325 323 323 322 322 321 317 315 318 318 316 319 321 317 310 307 306 304 302 302
326 329 328 328 328 327 326 325 325 325 325 325 325 326 326 325 325 325 325 324 325 326 325 324 325 327 328 328 328 328 329 329 329 329 328 328 328 329 329 328 327 326 325 324 324 323 322 322 319 315 316 318 317 314 316 317 313 309 308 307 304 302 302
326 327 328 327 327 326 325 325 325 325 325 324 324 325 325 325 324 324 324 324 324 325 324 323 324 327 328 327 328 328 328 329 329 328 328 327 328 329 329 328 327 326 325 323 323 322 322 320 318 316 316 317 315 313 313 313 311 310 310 309 306 304 303
324 325 327 326 324 324 325 326 325 324 324 323 323 323 323 325 324 323 323 323 324 325 324 322 322 325 328 327 328 328 328 328 327 328 327 327 328 328 329 328 327 326 325 322 321 322 322 320 318 318 318 317 315 312 311 311 311 311 312 310 308 306 304
323 324 325 322 322 324 325 325 324 323 323 322 323 322 322 324 324 323 323 323 324 325 323 322 322 325 327 327 327 327 327 326 326 327 327 326 327 327 328 328 327 326 325 322 320 320 321 320 319 320 319 318 315 312 311 311 310 311 312 311 309 308 305
323 323 322 322 323 325 324 324 324 324 323 322 323 322 321 323 323 323 322 322 323 324 323 321 322 325 326 326 327 326 326 326 326 326 326 325 325 325 326 327 327 327 325 321 320 320 319 318 318 319 318 317 315 313 314 314 312 311 312 311 309 308 305
323 323 322 323 324 324 324 325 325 324 323 323 323 322 321 324 324 323 322 321 322 324 323 321 322 324 326 326 326 326 326 326 326 325 325 324 324 324 324 325 326 327 325 321 320 319 319 318 317 317 317 316 315 313 314 315 314 311 311 311 309 307 306
324 323 321 322 323 323 324 325 324 324 323 323 323 321 322 323 323 322 321 320 322 323 323 320 321 324 326 326 326 326 325 323 323 323 323 323 324 324 323 324 325 327 325 321 320 319 320 319 317 316 316 315 314 313 313 313 313 312 310 310 308 307 307
323 322 321 322 323 323 323 324 323 323 323 322 322 321 322 322 322 322 321 320 321 322 321 319 320 323 325 324 324 322 319 317 317 318 318 320 322 322 323 323 324 326 325 322 321 321 321 320 316 315 315 314 313 313 312 312 311 309 309 308 307 307 307
323 322 322 323 323 322 322 322 323 323 323 322 322 321 321 322 321 320 320 319 319 319 319 318 319 320 322 322 320 317 316 314 314 316 316 318 319 319 320 321 324 325 325 323 321 321 321 319 316 315 315 315 314 312 311 310 308 307 308 308 307 307 307
323 323 323 323 323 322 322 322 322 323 322 321 320 320 321 321 320 319 319 319 319 318 318 318 317 318 319 320 319 316 316 315 314 315 315 316 317 316 316 317 321 324 325 324 322 322 322 319 317 316 315 315 315 314 311 309 308 307 308 308 307 307 307
323 322 322 322 322 322 322 322 322 322 320 319 318 318 318 316 316 317 318 319 318 318 318 317 317 317 316 318 317 316 316 317 315 314 315 315 315 315 315 316 318 321 323 323 322 322 322 322 320 319 317 316 315 315 312 309 308 308 307 307 307 306 307
323 322 322 322 322 321 322 321 321 320 317 315 314 314 313 311 311 313 315 317 317 317 317 316 316 316 315 315 315 315 317 317 315 314 314 315 315 315 316 316 317 318 319 319 319 318 318 320 321 321 320 319 317 314 311 309 308 309 308 307 306 307 307
323 322 322 322 321 321 321 320 320 318 314 312 313 313 312 311 311 311 312 314 316 316 315 314 313 313 314 314 314 314 316 317 316 315 314 315 315 315 315 316 316 316 316 315 315 315 315 316 316 318 319 320 318 314 310 309 308 309 308 307 307 307 307
322 322 321 322 321 321 320 320 319 317 313 313 314 314 313 313 312 312 311 312 314 314 313 313 312 312 313 313 313 313 315 316 316 315 315 315 316 315 315 315 315 315 315 315 315 315 315 314 314 315 316 317 316 312 309 308 308 309 309 308 307 307 307
322 322 321 321 320 320 320 319 319 317 315 314 315 315 315 314 314 313 312 312 312 312 312 312 313 312 312 312 313 313 314 316 316 316 316 316 316 315 314 314 315 315 315 315 315 315 315 314 314 314 313 314 312 310 308 309 308 309 309 308 308 308 308
322 322 321 321 320 319 319 319 318 317 317 316 316 316 315 315 315 314 313 313 312 312 312 312 313 313 312 312 313 313 314 315 316 317 317 316 316 315 314 314 314 315 315 315 315 315 315 315 314 313 313 312 311 311 310 310 310 309 309 309 308 308 308
323 322 322 320 319 319 319 318 318 318 318 317 317 316 315 315 315 315 314 313 313 312 312 313 313 314 313 313 314 313 313 315 316 316 317 316 316 316 315 315 314 314 315 314 314 315 315 315 315 314 314 314 313 313 313 312 311 310 309 309 309 308 308
322 322 322 320 319 319 318 318 319 319 319 319 318 317 317 317 315 315 314 314 314 313 313 313 314 314 313 313 314 314 313 315 315 315 316 316 315 315 315 315 314 314 314 314 314 314 315 315 315 314 314 315 315 314 314 313 312 311 311 310 309 309 309
320 320 321 320 319 318 318 319 320 320 320 320 319 319 319 317 315 315 315 315 314 313 313 313 314 314 313 312 314 315 314 315 315 315 315 315 315 315 315 314 314 313 313 313 313 314 314 315 315 315 314 315 315 314 314 314 313 313 312 312 310 310 309
319 319 320 321 320 319 320 321 321 320 320 321 321 320 320 319 318 317 317 316 316 315 314 314 314 314 313 312 313 314 314 314 315 314 314 315 314 315 314 314 314 313 313 313 313 313 313 314 315 315 315 314 314 314 314 314 313 313 313 313 312 311 310
313 314 316 318 318 318 318 320 321 321 321 320 320 320 321 321 321 320 319 318 317 317 317 316 315 314 314 313 313 313 314 314 314 314 314 314 314 314 314 314 314 314 314 314 314 314 313 314 314 315 315 314 314 314 314 314 314 314 314 314 313 312 312
305 305 307 309 311 311 311 313 316 317 317 318 319 320 320 321 321 322 322 321 321 320 320 319 317 316 315 314 314 313 313 314 314 314 314 314 314 314 314 314 314 314 314 314 315 315 315 315 315 315 315 315 315 315 314 314 314 314 314 314 314 314 313
302 302 302 303 304 304 304 305 307 307 309 311 313 315 316 317 319 320 321 322 322 322 322 321 320 319 318 316 316 315 314 314 314 314 314 314 314 314 314 315 315 315 315 315 315 315 315 315 316 316 316 315 315 315 315 315 315 315 314 314 315 315 314
300 300 301 302 302 302 302 302 303 303 304 305 306 307 308 310 311 312 315 317 319 321 322 322 322 322 322 321 320 319 318 316 315 315 315 314 314 314 314 315 315 315 315 315 315 315 315 315 316 316 316 316 316 315 315 315 315 315 314 314 314 314 314
299 299 300 300 300 300 300 300 301 302 303 303 304 304 305 304 304 305 307 309 311 314 318 319 317 317 318 319 320 321 321 320 318 317 317 316 316 316 316 315 315 315 315 316 316 316 316 316 316 316 316 316 316 315 315 315 315 314 314 314 313 313 312
299 299 299 299 299 299 299 299 300 300 300 301 301 302 302 303 303 303 303 304 305 306 309 311 310 309 310 311 313 316 318 320 321 320 319 319 318 318 318 318 318 317 317 316 316 316 316 316 316 316 315 315 315 314 314 315 314 313 313 312 311 311 310
299 299 299 299 299 299 299 299 299 299 299 299 300 300 300 301 301 301 302 302 302 303 304 306 306 307 307 306 307 309 312 315 318 319 320 320 319 319 318 318 319 319 319 319 318 318 317 317 316 316 316 315 314 314 315 315 313 312 311 310 309 309 308
298 298 298 298 298 298 299 299 299 299 299 299 299 299 299 299 300 300 300 301 301 302 302 303 304 305 305 305 305 306 307 310 313 315 317 319 319 319 319 319 318 318 319 319 319 319 319 318 317 317 316 314 314 314 314 313 312 310 309 308 308 308 307
298 298 298 298 298 298 298 298 298 298 298 298 298 299 299 299 299 299 300 300 300 301 301 301 302 303 303 303 304 304 306 307 309 311 314 316 318 318 319 319 319 319 318 318 318 318 318 318 318 316 315 315 315 314 313 312 310 308 308 308 308 307 305
297 297 297 297 297 297 297 297 297 297 297 298 298 298 298 298 298 298 299 299 299 300 300 300 301 301 302 302 302 303 304 306 307 309 312 313 315 317 318 319 319 318 318 318 318 318 318 319 318 317 315 315 315 314 313 311 308 308 308 308 306 304 302
297 296 296 296 296 296 296 296 296 296 296 296 297 297 297 297 297 298 298 298 298 299 299 299 300 300 301 301 302 302 303 304 306 309 311 312 313 315 317 318 318 318 318 318 318 318 318 318 318 317 317 316 315 314 313 310 308 308 307 305 303 302 301
295 295 295 295 295 295 295 295 295 295 295 295 295 296 296 296 296 296 297 297 298 298 298 298 299 299 300 300 301 301 302 303 305 307 310 311 312 313 314 316 317 317 317 317 317 317 317 317 317 317 316 316 315 314 311 309 306 305 304 302 302 302 302
Wind_Speed
19 19 18 17 16 15 13 11 11 11 11 10 9 8 8 8 8 7 8 8 8 8 8 8 8 9 10 11 12 12 12 12 12 13 15 15 17 14 10 7 4 3 10 10 9 10 5 2 4 6 8 10 12 12 11 11 10 8 7 7 6 6 7
20 20 20 18 17 15 13 13 13 13 13 11 9 8 7 6 6 7 7 7 8 8 8 8 8 9 10 11 12 12 12 12 11 12 13 15 17 15 12 8 4 8 10 9 13 14 8 4 3 3 8 12 12 11 11 11 9 8 8 8 7 7 7
22 21 21 19 17 16 14 13 13 13 13 11 10 9 7 6 5 5 4 5 7 8 8 9 9 9 10 10 10 12 11 11 11 11 11 14 17 16 12 10 9 12 11 8 12 14 9 6 5 5 9 11 9 9 11 11 10 8 8 8 7 7 7
23 23 22 20 18 17 14 12 11 11 11 10 9 9 8 6 5 3 3 4 7 10 8 7 7 7 8 9 9 10 11 11 10 10 9 11 16 16 13 12 12 15 14 11 15 18 13 9 8 7 9 12 11 10 11 11 10 9 8 7 6 6 7
23 24 23 20 19 17 14 13 12 11 10 9 8 8 8 6 4 4 4 5 7 9 7 6 6 6 7 8 9 10 10 11 10 10 10 11 15 17 14 12 12 15 16 15 20 21 17 19 18 10 11 14 11 9 13 13 10 9 9 8 6 6 6
23 24 23 21 19 17 14 14 13 11 10 9 8 8 7 6 5 5 6 7 8 7 5 5 5 5 6 7 8 8 9 10 9 10 11 11 14 17 16 14 14 16 15 14 20 20 17 24 24 15 12 13 10 10 12 12 10 10 9 8 7 6 7
24 23 22 20 18 16 14 13 12 10 10 8 7 7 6 6 6 7 8 8 8 7 6 5 4 5 6 6 7 7 8 8 8 9 9 10 14 16 16 15 15 15 13 14 20 20 19 24 23 19 15 11 11 12 8 8 11 8 7 8 7 7 9
23 23 21 18 16 15 13 12 11 9 8 8 7 6 6 7 7 7 7 7 8 8 6 3 3 5 6 6 6 6 7 7 7 8 8 10 13 15 16 17 16 13 11 15 20 20 22 25 24 25 22 12 8 7 5 7 9 6 8 10 7 7 10
23 22 20 17 15 14 12 11 10 8 8 8 7 6 6 6 7 6 6 6 7 8 5 2 2 5 6 7 6 6 7 7 7 7 8 9 10 13 15 17 17 13 11 16 19 20 24 26 25 27 28 21 12 5 3 6 5 5 10 12 8 8 9
22 20 18 16 14 13 12 10 10 10 10 8 6 5 6 7 7 5 4 5 7 8 5 2 2 4 6 7 7 7 8 7 7 7 7 7 7 9 12 15 16 14 14 16 18 20 24 25 25 26 25 27 23 11 3 4 4 6 11 12 8 8 10
19 17 15 15 14 13 12 11 11 12 11 9 7 5 6 8 7 6 5 4 6 8 6 2 1 3 5 7 8 8 8 7 7 7 7 7 7 8 10 13 14 15 15 17 17 21 23 22 24 24 22 26 26 18 10 6 4 7 13 12 8 9 12
15 14 15 16 15 13 12 11 12 13 12 10 8 7 7 8 8 7 6 5 7 9 7 4 2 3 4 6 7 8 7 6 7 7 8 8 8 9 10 12 15 16 17 19 19 21 20 18 21 24 22 22 22 20 19 14 5 8 15 14 10 11 13
12 13 15 16 15 13 11 11 12 12 12 10 8 7 7 8 8 7 6 6 8 10 8 4 4 4 5 5 6 6 6 5 6 7 8 8 9 10 11 13 16 19 21 22 22 21 19 17 21 24 22 20 20 18 19 17 9 8 15 14 11 13 14
15 14 15 15 14 12 10 9 11 12 11 9 7 7 7 7 7 6 6 7 8 9 6 4 5 5 6 6 6 5 5 6 6 8 9 10 10 10 11 14 17 20 22 23 21 20 19 19 22 25 22 20 20 18 17 17 11 10 14 13 12 15 15
17 14 14 14 13 11 9 9 10 11 10 8 7 7 6 6 6 6 7 7 6 7 5 5 5 5 6 7 6 6 6 7 8 10 11 11 11 10 11 14 18 21 23 23 22 20 20 22 23 25 24 22 22 22 20 17 13 13 15 15 14 16 16
16 14 14 14 12 11 10 10 10 9 7 6 6 6 5 5 5 6 8 6 5 6 6 6 6 6 7 8 8 7 7 9 11 12 12 12 12 10 11 14 18 21 22 22 22 20 20 23 24 26 27 26 25 25 23 20 15 14 18 18 16 17 17
18 15 15 15 13 13 11 10 9 7 5 6 7 6 5 5 4 5 7 7 7 6 6 7 7 7 8 8 9 8 8 10 11 12 12 12 12 12 14 16 19 20 21 20 20 19 19 21 24 26 28 28 27 26 25 23 18 14 17 19 18 18 17
19 17 17 16 13 13 12 10 8 5 6 7 9 8 7 7 5 4 5 7 8 8 7 7 8 8 9 9 9 9 9 10 11 10 11 12 13 14 15 18 19 19 20 20 19 18 18 18 19 22 26 29 29 27 25 24 20 16 16 19 20 19 17
19 16 16 15 13 12 12 11 8 6 6 8 9 8 7 7 6 5 4 6 8 9 9 8 8 9 9 9 8 9 11 12 10 9 10 10 11 12 13 15 17 18 19 19 18 17 16 16 15 17 21 25 27 26 24 22 20 17 17 19 20 20 19
17 14 13 13 13 12 13 13 11 9 8 9 9 8 8 7 7 6 6 7 7 8 9 9 9 8 9 9 8 9 11 12 11 9 9 9 9 10 11 12 14 17 18 18 16 16 16 15 14 13 16 19 21 23 23 21 20 18 17 18 19 19 18
16 15 14 15 15 14 13 13 11 10 10 10 9 9 8 8 9 9 10 10 9 9 10 10 10 10 9 10 10 10 11 12 11 11 11 11 10 10 9 10 11 13 15 16 15 15 14 14 14 15 15 17 19 21 21 20 19 18 18 19 18 17 15
15 15 14 14 13 11 10 10 8 7 8 9 10 9 9 9 11 12 13 13 13 12 12 12 12 12 12 11 11 12 12 12 12 12 13 14 13 12 11 10 10 10 11 12 13 14 13 13 13 15 16 17 18 19 20 19 19 19 18 19 18 16 14
14 14 13 11 9 8 8 7 5 3 2 4 7 8 8 9 11 12 12 14 16 16 15 14 14 13 13 13 12 12 14 13 13 13 14 15 15 15 14 13 12 12 11 11 11 12 12 13 14 15 15 16 17 18 20 21 21 20 20 20 20 18 15
13 12 11 11 10 9 8 5 4 3 1 1 2 3 4 7 10 10 9 10 14 17 17 17 15 14 14 15 15 14 15 15 15 14 15 16 16 17 17 16 15 15 15 15 14 13 13 13 14 16 17 17 18 19 20 21 22 21 21 21 21 20 19
15 14 12 10 9 7 4 3 3 4 3 1 1 2 3 3 6 8 9 9 11 13 15 17 18 17 15 15 17 17 17 18 18 18 17 17 17 18 18 18 18 16 16 16 17 17 16 15 15 16 17 18 20 21 21 21 21 21 21 21 21 21 21
24 22 19 15 13 11 9 5 3 2 1 2 2 1 2 4 6 7 7 8 8 9 10 12 16 19 19 18 18 19 19 19 20 20 21 20 19 19 19 20 20 19 18 18 18 18 19 19 18 18 18 18 19 20 21 21 21 21 21 21 22 23 22
28 27 25 22 20 18 17 14 11 8 6 3 1 1 2 5 8 9 8 8 8 8 7 8 10 15 18 20 21 22 23 23 22 22 22 23 23 22 22 22 22 23 22 22 22 22 22 22 22 22 21 20 20 20 20 20 20 20 20 21 21 22 22
27 25 24 24 22 21 20 19 17 15 13 10 6 3 2 5 8 8 9 9 9 9 8 8 8 10 12 15 17 19 22 24 25 25 25 25 26 25 25 25 26 27 26 25 25 26 25 25 25 24 23 23 22 22 22 21 21 21 20 20 19 19 20
25 24 23 22 22 21 20 19 17 16 14 12 10 7 6 6 7 7 8 8 9 10 9 9 11 11 12 13 15 16 18 20 22 24 26 27 28 29 29 29 30 30 30 29 28 28 28 28 27 26 25 26 25 24 23 22 21 21 21 20 18 16 17
25 23 22 22 22 21 19 18 17 15 13 12 11 9 8 8 9 10 9 9 10 10 9 9 11 13 13 14 15 17 18 20 21 22 23 25 26 28 30 31 32 33 33 32 32 31 30 29 28 27 27 28 28 26 24 23 22 21 20 19 17 15 14
25 24 23 22 21 19 18 17 16 15 14 13 12 11 11 10 10 10 10 10 11 12 11 11 11 12 13 14 15 16 17 19 22 23 24 25 25 26 27 29 30 32 33 34 34 32 31 30 29 28 28 30 29 26 25 25 24 23 20 18 17 16 17
23 23 22 21 20 18 17 16 15 14 14 13 13 13 12 12 12 11 12 12 12 13 14 14 13 13 14 14 16 17 17 18 20 22 24 25 26 26 26 27 28 29 30 32 32 31 31 31 31 31 31 30 29 30 32 31 27 24 22 20 20 21 21
20 20 19 18 17 16 15 14 14 14 14 13 13 13 13 14 13 13 13 13 13 13 15 16 16 15 16 16 17 18 18 18 19 21 23 24 26 26 26 26 27 28 29 30 30 31 32 33 34 33 32 31 32 35 37 34 28 25 24 23 22 21 21
18 17 16 15 14 14 13 13 13 13 13 13 13 13 13 14 14 14 14 14 13 13 14 16 17 17 17 17 18 19 20 20 19 20 22 24 26 27 27 26 25 25 27 29 30 31 32 34 36 34 31 31 33 34 34 32 28 25 24 24 23 22 23
16 16 15 15 14 14 13 13 13 13 13 13 13 14 14 14 15 15 15 15 14 14 14 15 16 17 18 18 18 20 21 21 21 20 21 23 25 26 27 27 26 24 24 26 28 29 30 32 35 36 34 33 33 33 33 30 27 26 26 26 26 26 26
15 15 16 15 15 14 14 14 14 14 13 14 14 14 15 15 16 17 16 16 15 15 15 16 16 17 17 18 19 20 22 22 21 20 20 22 24 25 26 27 26 25 24 25 25 27 28 30 33 35 36 34 31 31 31 27 27 29 29 29 29 28 27
15 15 15 14 14 14 14 14 13 13 13 13 14 15 15 16 17 18 18 18 17 17 17 17 17 16 16 16 18 20 22 22 22 21 20 19 21 22 24 26 26 25 24 24 23 24 26 27 30 32 33 31 28 28 28 27 29 31 29 28 29 28 26
Wind_Direction
189 188 186 181 178 179 175 170 172 170 162 152 143 141 138 132 133 138 141 145 155 164 170 173 173 178 186 189 189 191 193 198 206 206 199 194 196 205 209 215 269 208 164 159 159 146 122 89 93 93 96 112 125 128 127 125 122 117 111 109 104 102 107
189 184 179 178 177 174 163 154 154 156 160 157 150 147 144 141 141 141 144 149 156 162 167 169 167 171 182 189 192 194 197 200 209 214 209 205 204 206 202 200 195 163 150 143 148 140 124 128 129 102 109 115 119 123 130 127 116 112 109 106 106 109 114
183 180 176 175 172 165 155 147 145 146 150 152 149 146 144 146 149 148 157 165 165 162 165 168 170 177 183 188 193 197 200 202 207 211 214 214 211 208 206 197 176 160 148 134 145 142 128 120 118 132 132 126 118 118 133 136 126 122 117 111 115 121 126
180 178 177 174 168 163 156 148 146 144 145 147 148 148 147 148 155 170 194 202 178 167 167 173 177 190 198 198 199 199 199 200 205 206 206 212 211 211 212 210 198 185 177 171 164 156 148 136 124 124 130 129 124 122 139 146 139 133 123 116 120 124 128
181 179 178 174 169 167 161 152 148 144 145 148 151 154 153 153 160 179 197 203 186 173 171 178 185 199 208 207 205 204 197 196 202 202 198 200 205 209 211 213 213 201 194 188 175 168 162 152 141 129 131 132 122 125 147 152 146 138 127 115 116 123 131
183 184 181 175 172 173 169 161 155 151 150 150 152 157 159 161 169 179 186 187 182 176 168 170 183 194 202 206 209 210 203 199 204 206 207 203 201 206 208 209 209 202 200 197 184 177 165 151 140 127 130 131 122 131 147 151 148 144 135 124 115 119 130
185 187 183 177 175 176 173 168 165 164 162 159 161 166 165 170 173 172 177 180 179 179 167 159 168 175 187 199 208 210 204 203 207 211 216 209 202 205 207 208 206 200 202 197 187 182 168 152 140 129 122 110 115 133 142 150 152 151 152 143 125 119 128
184 185 182 178 176 175 174 172 172 173 172 170 174 178 173 174 174 168 173 179 182 182 173 163 170 172 181 192 196 199 195 196 203 209 214 207 204 207 209 211 205 199 200 190 185 186 175 163 152 145 141 126 121 142 142 154 165 171 169 161 146 136 135
181 181 179 178 177 176 176 177 179 181 182 180 179 182 181 180 177 172 172 178 183 182 173 164 179 179 184 193 197 194 190 193 198 204 209 206 206 208 210 212 207 200 195 186 184 183 174 168 165 162 158 151 149 156 148 161 179 170 167 171 167 161 153
180 180 179 177 176 177 177 182 187 188 191 190 186 187 189 189 192 198 196 184 182 181 168 148 181 192 196 202 201 192 190 195 195 192 193 191 193 199 204 209 209 203 193 186 185 180 172 169 169 170 170 164 158 152 137 173 193 172 172 180 177 168 163
179 181 182 181 180 180 180 186 191 191 191 190 190 191 190 191 199 216 223 196 180 180 172 156 196 212 209 204 195 188 190 194 188 180 179 179 177 182 192 199 201 199 191 187 184 178 175 175 174 173 174 172 166 159 154 162 199 195 184 184 182 170 161
175 181 186 185 184 184 186 191 192 192 191 188 190 193 193 194 193 206 222 206 184 181 175 172 209 217 204 196 188 183 185 189 186 179 181 187 188 183 183 185 187 187 185 185 186 186 188 189 184 178 176 176 175 172 168 163 170 204 194 188 182 171 157
174 184 189 188 188 190 191 190 191 193 190 186 190 196 199 198 193 200 215 202 188 185 180 183 210 205 189 186 185 181 180 186 188 182 178 179 180 179 177 176 180 183 182 184 190 197 202 199 190 186 185 185 185 185 181 172 161 185 194 191 179 170 161
182 188 191 195 196 193 187 184 188 191 189 187 194 198 194 194 199 210 208 193 187 188 190 207 217 206 197 195 193 189 188 192 187 171 162 159 161 169 174 173 175 180 182 185 190 195 197 195 192 191 195 198 198 200 196 183 163 160 184 194 183 173 170
181 187 185 190 193 188 179 179 186 190 188 188 193 192 189 196 211 216 206 196 192 194 208 228 224 216 213 208 205 200 192 190 181 164 154 152 155 169 178 174 173 176 181 186 190 192 193 194 195 197 202 208 211 212 208 195 174 162 179 192 186 179 180
175 179 173 176 180 177 175 179 185 189 188 184 182 181 186 201 211 209 204 202 203 209 222 233 234 234 226 215 211 208 195 187 179 166 159 155 156 166 173 171 171 173 179 186 192 195 199 201 203 205 209 213 216 217 213 205 194 179 180 188 188 187 188
176 178 175 177 175 172 174 178 182 186 182 169 161 161 162 168 180 198 207 212 217 222 227 233 240 241 229 219 215 210 198 190 184 176 173 169 164 165 164 163 163 166 171 177 182 188 195 201 207 212 214 216 217 217 212 210 212 205 191 188 191 195 195
178 179 177 176 170 168 172 176 181 184 177 164 156 157 160 159 165 186 205 216 219 224 233 240 242 238 229 226 225 220 209 199 193 191 192 188 180 174 169 165 164 167 172 175 177 182 187 194 202 209 214 215 215 213 208 207 214 218 206 196 194 196 201
178 177 174 174 172 173 175 177 181 183 182 178 174 176 180 180 185 195 207 220 220 226 237 244 247 244 237 234 234 228 216 208 206 206 203 198 192 189 185 180 178 180 183 183 183 186 187 190 195 202 209 211 209 206 203 203 209 215 214 206 198 196 202
176 172 176 180 179 180 181 180 183 188 191 195 196 200 207 213 219 223 225 230 229 229 231 238 249 251 242 239 240 232 220 215 215 216 213 206 200 197 195 193 189 189 191 192 190 187 185 185 187 193 200 202 200 198 199 203 208 211 212 208 200 197 202
168 170 178 180 179 183 185 182 186 196 204 212 217 222 229 237 240 238 235 235 234 228 226 233 242 246 244 246 245 235 225 222 221 223 222 219 215 211 207 201 195 194 197 200 199 194 191 188 183 184 189 192 194 198 201 204 207 209 211 209 204 200 201
160 163 167 170 174 179 176 173 184 202 215 223 227 233 244 250 248 242 239 238 236 231 231 235 239 242 243 245 243 234 226 227 231 229 225 224 228 231 229 223 216 209 206 206 205 203 203 204 201 197 196 197 198 202 204 206 208 209 209 210 209 206 203
141 143 143 145 152 165 165 165 180 194 217 230 224 231 250 252 246 246 247 244 239 235 235 238 241 244 241 237 238 235 229 229 233 231 227 226 231 237 241 244 241 235 231 228 224 221 219 221 222 219 216 214 212 210 208 207 210 212 213 213 213 210 207
115 118 119 124 136 160 175 175 175 176 197 278 213 222 262 252 241 247 255 253 245 240 240 242 243 245 240 234 233 233 232 232 233 233 233 234 238 242 245 248 250 247 244 242 242 244 241 237 232 228 227 226 224 221 217 212 211 213 215 217 217 215 214
90 87 90 102 112 126 152 175 186 190 205 294 38 56 17 314 266 257 256 256 253 247 247 249 246 244 241 237 235 235 236 237 238 239 241 243 245 248 248 250 251 250 248 246 247 250 250 247 240 233 230 227 223 222 223 221 218 217 217 217 218 218 220
81 79 82 88 88 84 86 98 124 155 202 302 336 35 37 359 330 302 277 264 259 253 253 254 250 246 244 240 240 241 242 243 244 244 245 246 247 248 247 248 248 249 249 249 248 250 250 249 245 239 234 229 224 222 224 226 228 230 229 225 221 220 222
75 75 77 80 81 77 74 75 78 74 63 40 348 268 273 306 315 312 304 295 284 273 265 261 257 253 250 247 246 246 247 248 248 248 249 249 250 250 249 247 247 249 249 249 248 248 248 246 244 241 238 236 234 232 230 230 231 234 235 232 229 227 226
69 68 69 71 71 68 64 64 65 63 62 65 62 51 359 321 313 308 307 307 302 297 292 282 274 266 262 261 259 256 254 251 251 252 252 252 253 253 252 251 251 252 253 252 251 249 247 246 244 242 241 240 241 240 238 236 236 236 235 233 233 235 231
62 60 61 60 58 55 52 50 48 47 52 58 54 48 40 14 348 334 327 322 313 305 301 300 297 289 280 274 270 267 264 260 257 256 255 256 255 255 254 254 254 255 256 255 254 251 248 245 241 239 240 241 240 239 239 238 238 237 236 233 230 232 231
54 53 53 51 48 44 40 36 33 29 29 32 29 22 17 8 359 349 342 338 331 317 304 308 316 314 307 298 287 279 273 268 264 261 259 259 258 256 256 255 255 256 256 257 257 255 250 245 239 236 238 240 240 237 236 237 237 235 234 234 228 222 215
45 45 45 44 41 37 32 28 22 17 13 11 7 1 353 345 344 343 339 336 334 325 312 311 318 320 320 319 310 301 293 281 272 266 264 262 260 258 257 257 257 257 257 258 259 257 254 249 244 239 237 238 238 238 238 239 236 230 228 228 217 199 185
39 39 39 37 35 32 28 23 15 9 5 0 355 351 343 334 332 334 333 331 329 324 315 309 312 313 315 319 317 313 310 299 286 278 273 269 265 262 259 257 257 258 259 260 261 261 259 255 250 246 242 236 234 240 245 244 238 228 219 207 191 179 174
32 34 34 32 30 28 25 19 12 6 2 357 351 345 339 335 331 330 330 328 326 324 318 310 308 309 311 315 316 314 311 305 295 288 281 275 270 266 262 259 258 258 259 261 261 262 261 260 257 253 245 236 234 238 241 239 235 226 209 193 186 184 183
31 31 30 26 24 23 21 18 13 7 2 357 353 348 342 337 332 327 326 324 322 321 318 312 307 304 306 310 312 311 309 304 300 294 285 278 273 270 268 266 265 265 264 264 264 263 262 263 262 257 248 244 244 244 241 235 227 217 204 196 194 192 186
29 27 23 19 17 16 14 12 9 4 360 354 351 348 344 340 334 327 321 319 318 317 315 313 309 304 301 303 306 307 306 303 299 294 286 278 274 272 272 272 271 270 270 269 269 268 267 266 264 261 258 257 255 253 250 239 221 211 207 201 193 184 178
20 17 13 11 10 8 6 4 2 0 356 352 348 344 340 337 334 329 323 318 315 314 312 310 310 307 303 300 300 301 303 305 303 296 287 279 276 276 275 272 269 267 267 266 266 267 267 267 267 265 264 263 258 253 249 234 213 206 203 193 183 178 177
20 18 16 15 15 13 10 8 5 2 357 352 347 341 337 334 331 329 327 322 317 315 313 310 309 309 308 304 299 295 296 301 306 305 297 286 279 277 275 273 271 269 267 264 262 263 264 266 269 268 266 263 254 243 236 221 203 195 188 180 177 176 176